Date,TemperatureHighF,TemperatureAvgF,TemperatureLowF,DewpointHighF,DewpointAvgF,DewpointLowF,HumidityHigh,HumidityAvg,HumidityLow,PressureMaxIn,PressureMinIn,WindSpeedMaxMPH,WindSpeedAvgMPH,GustSpeedMaxMPH,PrecipitationSumIn
2013-3-13,53,50,47,39,38,37,69,65,58,29.15,29.13,15,4,15,0.00
2013-3-14,59,48,41,44,37,24,89,68,36,29.16,29.02,30,6,30,0.00
2013-3-15,59,47,39,36,31,22,70,56,27,29.21,29.04,24,7,24,0.00
2013-3-16,51,42,35,35,29,14,77,60,42,29.11,28.74,46,9,46,0.02
2013-3-17,44,37,33,15,10,5,45,32,22,29.06,28.78,51,22,51,0.02
2013-3-18,44,34,27,30,16,10,88,50,26,29.22,28.99,50,13,50,0.02
2013-3-19,44,34,25,30,18,8,91,54,34,29.26,28.86,34,7,34,0.02
2013-3-20,48,36,32,39,30,16,92,81,47,28.86,28.55,37,6,37,0.04
2013-3-21,42,35,29,18,12,3,52,39,25,29.10,28.82,40,15,40,0.08
2013-3-22,44,32,23,21,13,6,62,47,22,29.31,29.10,28,8,28,0.00
2013-3-23,47,33,21,18,11,6,57,42,23,29.36,29.16,17,7,17,0.00
2013-3-24,46,35,24,21,14,8,53,42,28,29.35,29.22,26,8,26,0.00
2013-3-25,52,39,27,22,17,8,58,43,21,29.24,29.06,17,7,17,0.01
2013-3-26,59,44,30,28,22,18,61,44,23,29.09,29.00,16,6,16,0.05
2013-3-27,59,47,38,34,30,23,68,52,29,29.09,29.03,24,6,24,0.05
2013-3-28,61,49,38,38,34,31,75,57,36,29.18,29.08,21,6,21,0.00
2013-3-29,64,51,39,35,31,26,72,49,25,29.29,29.18,23,7,23,0.00
2013-3-30,68,52,39,36,31,27,66,47,24,29.45,29.20,18,7,18,0.00
2013-3-31,72,55,41,37,30,22,66,42,16,29.23,29.05,15,6,15,0.00
2013-4-1,66,52,44,38,34,32,64,51,32,29.09,29.06,11,5,12,0.00
2013-4-2,59,54,51,36,35,31,56,48,34,29.14,29.08,31,19,31,0.00
2013-4-3,67,54,44,36,34,30,69,48,31,29.18,29.06,20,8,20,0.01
2013-4-4,51,49,47,47,38,32,99,69,48,29.08,28.79,22,5,22,1.65
2013-4-5,61,48,40,49,42,31,99,79,51,29.03,28.79,17,5,17,1.67
2013-4-6,56,48,40,43,32,15,92,58,21,28.90,28.78,33,-2,33,0.85
2013-4-7,44,39,33,41,33,28,99,78,61,28.85,28.63,22,6,22,0.34
2013-4-8,54,42,35,40,35,30,97,77,51,29.25,28.82,17,6,17,0.00
2013-4-9,53,45,37,40,37,31,95,74,57,29.33,29.19,21,5,21,2.10
2013-4-10,55,46,40,49,35,23,98,68,36,29.20,28.89,66,15,66,0.08
2013-4-11,54,46,36,30,23,14,68,42,21,29.17,29.12,40,11,40,0.09
2013-4-12,49,42,33,35,28,22,77,59,46,29.21,28.62,29,8,29,0.04
2013-4-13,47,39,33,32,17,10,83,43,24,28.95,28.60,60,22,60,0.09
2013-4-14,51,39,30,31,24,13,76,55,27,28.98,28.92,18,7,18,0.09
2013-4-15,46,36,32,39,33,29,99,91,58,29.21,28.97,26,5,26,0.02
2013-4-16,50,39,32,32,24,9,93,59,23,29.41,29.21,17,7,17,0.01
2013-4-17,54,42,31,29,23,17,68,49,25,29.44,29.34,31,10,31,0.00
2013-4-18,58,48,37,38,33,27,71,55,39,29.36,29.16,21,6,21,0.00
2013-4-19,64,51,41,40,35,31,84,57,35,29.16,29.00,39,12,39,0.01
2013-4-20,56,50,45,35,29,24,63,45,31,29.16,29.07,49,20,49,0.19
2013-4-21,47,40,33,41,30,21,99,71,48,29.38,29.15,29,8,29,0.01
2013-4-22,60,45,32,27,18,11,65,38,18,29.53,29.37,21,9,21,0.01
2013-4-23,65,47,35,31,23,17,56,39,20,29.44,29.29,23,7,23,0.00
2013-4-24,70,52,37,32,25,16,66,38,14,29.39,29.06,26,9,26,0.00
2013-4-25,74,58,45,38,31,24,53,38,19,29.16,29.05,41,13,41,0.04
2013-4-26,72,61,50,40,31,17,64,37,13,29.24,29.16,30,13,33,0.04
2013-4-27,66,57,49,35,31,20,56,39,17,29.19,29.03,55,23,55,0.15
2013-4-28,59,51,45,35,27,18,64,41,24,29.14,28.89,36,12,36,0.05
2013-4-29,49,45,44,30,22,7,56,41,20,29.08,28.81,50,21,50,0.13
2013-4-30,51,49,46,18,12,9,30,22,20,29.42,29.07,26,12,26,0.13
2013-5-1,63,54,50,22,16,11,26,22,20,29.60,29.41,23,9,23,0.00
2013-5-2,68,59,53,32,24,19,44,26,19,29.61,29.36,33,8,33,0.00
2013-5-3,74,64,58,38,25,18,46,24,13,29.44,29.29,28,14,28,0.00
2013-5-4,76,67,63,39,25,20,38,21,16,29.42,29.21,15,6,15,0.00
2013-5-9,93,78,65,38,29,18,25,17,11,29.23,29.12,18,8,18,0.00
2013-5-10,90,72,63,45,30,17,38,22,11,29.27,29.19,27,9,27,0.00
2013-5-11,84,72,61,47,39,31,45,31,17,29.27,29.11,15,6,15,0.00
2013-5-12,71,65,61,51,43,38,61,46,35,29.14,29.06,24,7,24,0.00
2013-5-13,68,63,62,44,41,37,52,45,36,29.15,28.96,43,9,43,0.06
2013-5-14,68,65,64,37,36,29,36,34,23,29.22,29.12,16,-7,16,0.01
2013-5-15,68,68,68,29,29,29,23,23,23,29.10,29.00,20,10,20,0.02
2013-5-16,68,68,68,29,29,29,23,23,23,29.06,28.98,20,6,20,0.07
2013-5-17,68,68,68,29,29,29,23,23,23,29.04,28.97,20,-12,20,0.01
2013-5-18,68,68,68,29,29,29,23,23,23,29.25,29.04,23,8,23,0.04
2013-5-19,68,68,68,29,29,29,23,23,23,29.31,29.25,16,8,16,0.04
2013-5-20,68,68,68,29,29,29,23,23,23,29.18,28.97,27,14,27,0.00
2013-5-21,68,68,68,29,29,29,23,23,23,28.97,28.75,17,5,17,0.50
2013-5-22,68,68,68,29,29,29,23,23,23,29.06,28.87,21,6,21,0.07
2013-5-23,68,68,68,29,29,29,23,23,23,29.10,29.05,21,6,21,0.12
2013-5-24,68,68,68,29,29,29,23,23,23,29.07,29.01,32,7,32,0.15
2013-5-25,68,68,68,29,29,29,23,23,23,29.08,29.03,27,7,27,0.04
2013-5-26,68,68,68,29,29,29,23,23,23,29.07,29.01,23,7,23,0.04
2013-5-27,68,68,68,29,29,29,23,23,23,29.02,28.88,37,8,37,0.04
2013-5-28,68,68,68,29,29,29,23,23,23,28.92,28.84,23,5,23,0.06
2013-5-29,68,68,68,29,29,29,23,23,23,28.95,28.79,19,5,19,0.06
2013-5-30,68,68,68,29,29,29,23,23,23,29.23,28.96,30,10,30,0.01
2013-5-31,68,68,68,29,29,29,23,23,23,29.33,29.22,25,10,25,0.01
2013-6-1,68,68,68,29,29,29,23,23,23,29.30,29.10,38,8,38,0.01
2013-6-2,68,68,68,29,29,29,23,23,23,29.12,29.03,30,12,30,0.01
2013-6-3,68,68,68,29,29,29,23,23,23,29.19,29.09,22,8,22,0.00
2013-6-4,68,68,68,29,29,29,23,23,23,29.26,29.18,16,6,16,0.00
2013-6-29,85,84,82,61,60,58,44,44,43,29.21,29.13,23,4,23,0.01
2013-6-30,86,85,84,63,61,60,48,44,44,29.21,29.12,25,6,25,0.01
2013-7-1,94,88,86,61,60,56,44,39,30,29.21,29.08,16,6,16,0.01
2013-7-2,100,92,86,62,54,35,35,28,11,29.16,29.03,36,12,36,0.00
2013-7-3,86,86,86,51,51,51,30,30,30,29.18,29.02,32,12,32,0.00
2013-7-4,86,86,86,51,51,51,30,30,30,29.08,28.96,34,18,34,0.00
2013-7-5,86,86,86,51,51,51,30,30,30,29.01,28.91,26,11,26,0.01
2013-7-6,86,86,86,51,51,51,30,30,30,29.07,28.96,24,9,24,0.01
2013-7-7,86,86,86,51,51,51,30,30,30,29.06,28.96,36,9,36,0.09
2013-7-8,86,86,86,51,51,51,30,30,30,29.19,29.03,19,7,19,0.09
2013-7-9,86,86,86,51,51,51,30,30,30,29.25,29.09,34,9,34,0.00
2013-7-10,86,86,86,51,51,51,30,30,30,29.12,28.90,40,13,40,0.02
2013-7-11,86,86,86,51,51,51,30,30,30,29.05,28.95,37,18,37,0.02
2013-7-12,86,86,86,51,51,51,30,30,30,29.14,29.03,27,11,27,0.02
2013-7-13,86,86,86,51,51,51,30,30,30,29.24,29.13,20,10,20,0.01
2013-7-17,90,86,85,55,46,43,32,25,21,29.21,29.12,22,10,22,0.00
2013-7-18,85,85,85,44,44,44,24,24,24,29.29,29.15,25,8,25,0.00
2013-7-19,99,90,85,44,40,28,24,19,11,29.22,29.05,28,9,28,0.00
2013-7-20,98,93,81,44,36,28,25,14,11,29.11,28.95,36,13,36,0.00
2013-7-21,98,84,73,47,41,29,36,22,12,29.00,28.88,34,14,34,0.00
2013-7-22,95,80,68,46,40,28,38,25,11,29.09,28.95,29,14,29,0.00
2013-7-23,95,82,67,50,43,29,46,28,11,29.16,29.02,23,10,23,0.00
2013-7-24,98,83,68,45,37,28,36,21,11,29.15,29.03,26,10,26,0.00
2013-7-25,100,83,69,42,36,23,35,21,11,29.16,29.00,34,10,34,0.00
2013-7-26,97,81,65,39,31,18,24,17,11,29.21,29.08,38,13,38,0.04
2013-7-27,88,76,66,41,30,18,34,19,12,29.17,28.98,32,13,32,0.04
2013-7-28,87,72,60,52,41,31,74,36,15,29.05,28.96,34,12,34,0.00
2013-7-29,88,71,59,52,44,36,67,42,19,29.14,29.01,36,9,36,0.00
2013-7-30,87,72,59,52,45,31,71,42,16,29.25,29.14,23,8,23,0.00
2013-7-31,90,74,62,50,44,38,51,36,17,29.27,28.96,31,10,31,0.00
2013-8-1,88,69,62,57,51,40,79,55,23,29.15,29.00,30,8,30,0.22
2013-8-2,76,64,57,61,56,51,96,75,45,29.19,29.06,15,5,15,0.06
2013-8-3,81,70,60,58,55,53,83,62,41,29.23,29.14,21,6,21,0.00
2013-8-4,85,68,61,66,56,51,90,65,35,29.20,29.12,30,7,30,0.01
2013-8-5,89,74,58,57,51,43,85,50,21,29.16,29.02,19,6,19,0.01
2013-8-6,94,78,64,54,44,28,57,33,11,29.12,28.99,32,11,32,0.00
2013-8-7,92,80,66,49,43,33,38,28,15,29.10,29.00,19,9,19,0.00
2013-8-8,93,80,68,53,46,37,47,32,17,29.14,28.99,20,10,20,0.00
2013-8-9,95,81,68,54,48,40,54,34,16,29.09,28.96,21,7,21,0.00
2013-8-10,92,77,61,62,54,43,94,48,23,29.17,28.99,36,9,36,0.20
2013-8-11,84,70,59,62,58,52,99,67,38,29.20,29.03,30,9,45,0.48
2013-8-12,86,73,59,59,53,42,84,53,25,29.15,29.05,29,8,29,0.00
2013-8-13,89,78,62,56,49,38,72,41,18,29.19,29.07,28,8,28,0.00
2013-8-14,86,86,86,44,44,44,23,23,23,29.12,28.99,23,8,23,0.00
2013-8-15,86,86,86,44,44,44,23,23,23,29.12,29.03,30,10,30,0.00
2013-8-16,86,86,86,44,44,44,23,23,23,29.15,29.06,21,8,21,0.00
2013-8-17,86,86,86,44,44,44,23,23,23,29.15,29.05,35,10,35,0.00
2013-8-18,86,86,86,44,44,44,23,23,23,29.20,29.07,30,11,30,0.00
2013-8-19,86,86,86,44,44,44,23,23,23,29.17,29.10,33,13,33,1.06
2013-8-20,86,86,86,44,44,44,23,23,23,29.21,29.12,26,12,26,0.00
2013-8-21,86,86,86,44,44,44,23,23,23,29.15,29.10,8,5,8,0.00
2013-9-3,86,86,86,44,44,44,23,23,23,29.15,29.03,23,10,23,0.00
2013-9-4,86,86,86,44,44,44,23,23,23,29.17,29.07,18,6,18,0.00
2013-9-5,86,86,86,44,44,44,23,23,23,29.16,28.99,42,6,42,0.66
2013-9-6,86,86,86,44,44,44,23,23,23,29.14,29.04,28,6,28,1.12
2013-9-7,86,86,86,44,44,44,23,23,23,29.23,28.99,11,4,11,0.01
2013-9-8,86,86,86,44,44,44,23,23,23,29.14,28.96,15,4,15,0.00
2013-9-9,32,32,32,6,6,6,33,33,33,29.12,29.12,11,10,15,0.00
2013-9-10,86,86,86,44,44,44,23,23,23,29.16,29.07,8,4,8,0.00
2013-9-11,86,86,86,44,44,44,23,23,23,29.07,29.07,12,12,12,0.00
2013-12-30,24,22,21,20,18,16,84,83,82,29.27,29.26,2,1,2,0.00